Regional Weather Roundup
Issued by NWS Portland, ME

Current Version | Previous Version | Text Only | Print | Product List | Glossary Off
Versions: 1 2 3 4 5 6 7 8 9 10 11 12 13 14 15 16 17 18 19 20 21 22 23 24 25 26 27 28 29 30 31 32 33 34 35 36 37 38 39 40 41 42 43 44 45 46 47 48 49 50

099
ASUS41 KGYX 200410
RWRGYX
WEATHER ROUNDUP FOR MAINE AND NEW HAMPSHIRE
NATIONAL WEATHER SERVICE GRAY ME
1100 PM EST MON FEB 19 2018

MEZ002-005-006-010-012-015-018-020-021-024-026-027-029-200500-
MAINE

CITY           SKY/WX    TMP DP  RH WIND       PRES   REMARKS
PORTLAND       CLOUDY    41  40  96 S7        30.26S
SANFORD        LGT RAIN  41  40  96 S6        30.25S
BAR HARBOR     CLOUDY    42  41  96 SW12      30.26S
WISCASSET      CLOUDY    42  40  92 SW9       30.27S
ROCKLAND       CLOUDY    43  42  97 SW10      30.26S
FRYEBURG       CLOUDY    42  37  82 S8        30.21S
AUGUSTA        CLOUDY    40  36  86 CALM      30.24R
WATERVILLE     CLOUDY    40  36  86 S6        30.19R
BANGOR         CLOUDY    38  38 100 S5        30.25R
GREENVILLE       N/A     32  32 100 SE6       30.16R
MILLINOCKET    CLOUDY    34  33  96 CALM      30.24S FOG
HOULTON        MIX PCPN  36  35  96 S6        30.22F
PRESQUE ISLE   CLOUDY    36  30  79 S7        30.22S
FRENCHVILLE    CLOUDY    31  24  75 S6        30.16S
CARIBOU        CLOUDY    36  28  73 SW6       30.20R
$$

NHZ002-005-008-009-011-012-014-200500-
NEW HAMPSHIRE

CITY           SKY/WX    TMP DP  RH WIND       PRES   REMARKS
PORTSMOUTH     LGT RAIN  43  43  99 SW6       30.25S
ROCHESTER      LGT RAIN  40  40 100 S3        30.24F FOG
NASHUA         LGT RAIN  41  41 100 CALM      30.26S
MANCHESTER     LGT RAIN  43  42  97 S5        30.25S
CONCORD        LGT RAIN  40  38  93 SE6       30.24F
PLYMOUTH       MIX PCPN  34  32  93 CALM      30.24S
BERLIN         CLOUDY    35  34  96 CALM      30.17S
WHITEFIELD     LGT RAIN  35  33  92 S3        30.19R
JAFFREY        LGT RAIN  43  43 100 SW10G20   30.25R
KEENE          LGT RAIN  38  37  97 S3        30.25S FOG
LEBANON        CLOUDY    39  36  89 S9        30.21F
MT WASHINGTON  FOG       32  32 100 W61G74      N/A  VSB 0   WCI  13
$$

VTZ005-007-008-200500-
VERMONT

CITY           SKY/WX    TMP DP  RH WIND       PRES   REMARKS
ST JOHNSBURY     N/A     39  36  89 MISG      30.19R
MONTPELIER     LGT RAIN  37  36  96 SE8       30.20S
BURLINGTON     CLOUDY    42  37  82 S13G22    30.16F
$$

MAZ007-012-024-CTZ003-RIZ002-NYZ038-NYZ072-200500-
SOUTHERN NEW ENGLAND AND NY

CITY           SKY/WX    TMP DP  RH WIND       PRES   REMARKS
BOSTON         LGT RAIN  49  47  93 SW17      30.29F
WORCESTER      LGT RAIN  45  44  97 SW16      30.28S
NANTUCKET      CLOUDY    45  45 100 SW9       30.40S
PROVIDENCE     LGT RAIN  51  50  96 SW10      30.34F
HARTFORD       LGT RAIN  44  44 100 S7        30.32S FOG
ALBANY         LGT RAIN  42  39  89 S9G20     30.23F
NEW YORK CITY  DRZL/FOG  46  45  96 CALM      30.33S VSB 1/4
$$

ANZ081-ANZ082-ANZ150-NHZ014-MEZ023>029-200500-
COASTAL MARINE OBSERVATIONS

STATION/POSITION TIME  TEMP    WIND        PRES    WAVE
                       AIR SEA DIR/SP/G            HT/PER
                 (UTC) (F)     (DEG/KT/KT) (MB)    (FT/S)
MOUNT DESERT ROC 0400   45     190/ 29/ 33 1024.5F
MATINICUS ROCK   0300   43     200/ 25/ 27 1024.4F
ISLE OF SHOALS   0300   44     210/ 14/ 14 1024.8F
JEFFREYS LEDGE   0336      41                N/A     5/11
GEORGES BANK BUO 0250   40 57              1036.9   10/11
$$

.............KEY..............
   WCI - WIND CHILL
   TC  - TEMPERATURE IN CELSIUS
   VSB - VISIBILITY IN MILES
   HX  - HEAT INDEX
   FAIR- INDICATES FEW OR NO CLOUDS BELOW 12,000 FT, WITH NO
         SIGNIFICANT WEATHER AND/OR OBSTRUCTIONS TO VISIBILITY.






USA.gov is the U.S. government's official web portal to all federal, state and local government web resources and services.